Find Starlink 5131

NORAD ID: 53996 Int'l Des: 2022-125 Owner: SPXS Country: US Constellation: starlink operational
LEOCIRCULAR

当前视图

正在加载3D地球...

About Starlink 5131

Starlink 5131 (NORAD 53996) is a starlink constellation satellite (v1.5) launched Oct 5, 2022 by SPXS of US. It operates in LEO, CIRCULAR orbit with a mass of 305.00 kg.

即将过境

Passes for default location (London). Set your location on the main map for personalized predictions.

高度历史

Loading altitude history...

两行轨道根数

1 53996U 22125AJ 26238.05787323 -.00000409 00000-0 -76202-5 0 9997
2 53996 53.1586 173.1261 0001314 82.6319 277.4822 15.08832289215030
Epoch: Aug 26, 2026 • Age: 9 hours

当前状态

高度 539.9 km
远地点 / 近地点 N/A
速度 7.59 km/s
星下点 8.77°N, 141.03°W
发射日期 Oct 5, 2022
运行时间 3.8 years
类型 internet

技术详情

分类 Payload
质量 305.00 kg
干质量 290.00 kg
总质量 305.00 kg
长度 0.20 m
直径 2.80 m
跨度 9.00 m
形状 Box + pan
制造商 SPXS
平台类型 Starlink
阶段状态 In Orbit
所有者/国家 SPXS/US

Most Searched